Weather Roundup
Issued by NWS Chicago, IL

Home | Current Version | Previous Version | Graphics & Text | Print | Product List | Glossary On
Versions: 1 2 3 4 5 6 7 8 9 10 11 12 13 14 15 16 17 18 19 20 21 22 23 24 25 26 27 28 29 30 31 32 33 34 35 36 37 38 39 40 41 42 43 44 45 46 47 48 49 50
000
NZUS59 KLOT 171206
HRRLOT

CHICAGO AREA WEATHER ROUNDUP
NATIONAL WEATHER SERVICE CHICAGO/ROMEOVILLE IL
700 AM CDT THU APR 17 2014

NOTE: "FAIR" INDICATES FEW OR NO CLOUDS BELOW 12,000 FEET WITH NO
SIGNIFICANT WEATHER AND/OR OBSTRUCTIONS TO VISIBILITY.

* THESE STATIONS ARE NOT UNDER NWS QUALITY CONTROL. THEY ALSO MAY NOT
  REPORT WEATHER SUCH AS PRECIPITATION OR FOG.

ILZ005-006-012>014-019>023-171300-
NORTHEAST ILLINOIS

CITY           SKY/WX    TMP DP  RH WIND       PRES   REMARKS
OHARE          MOCLDY    43  25  49 S13       30.12R
6HR MIN TEMP:  40; 6HR MAX TEMP:  44;

MIDWAY         MOCLDY    43  26  51 S13       30.14R
6HR MIN TEMP:  43; 6HR MAX TEMP:  44;

AURORA         PTCLDY    39  29  67 S13       30.12R
6HR MIN TEMP:  39; 6HR MAX TEMP:  43;

LANSING*       CLOUDY    40  26  57 S10G17    30.16S
JOLIET*        PTCLDY    41  28  58 S7        30.16R
WAUKEGAN       MOCLDY    43  26  51 S12       30.11R
6HR MIN TEMP:  40; 6HR MAX TEMP:  43;

DUPAGE AIRPORT PTCLDY    39  28  64 S15       30.11R
6HR MIN TEMP:  38; 6HR MAX TEMP:  43;

WHEELING       CLOUDY    43  27  53 S16       30.13R
6HR MIN TEMP:  42; 6HR MAX TEMP:  44;

KANKAKEE*      PTCLDY    40  29  66 SE12G17   30.17S
MORRIS*        PTCLDY    40  28  61 S9        30.14R
LEWIS AIRPORT* PTCLDY    38  28  66 S13       30.14R
NORTHERLY IS     N/A     43  26  51 S13         N/A
$$

WIZ051-052-058>065-066-070>072-171300-
SOUTHEAST WISCONSIN

CITY           SKY/WX    TMP DP  RH WIND       PRES   REMARKS
MILWAUKEE      CLOUDY    40  30  67 SE16      30.10R
6HR MIN TEMP:  39; 6HR MAX TEMP:  41;

KENOSHA*       MOCLDY    41  31  67 S8        30.10R
RACINE*        CLOUDY    39  31  72 S18       30.12R
BURLINGTON     CLOUDY    41  28  60 S9G16     30.08R
WAUKESHA       CLOUDY    37  30  75 SE12      30.07S
WEST BEND      CLOUDY    37  28  70 SE8       30.07R
$$

INZ001>003-010>013-019-020-171300-
NORTHWEST INDIANA

CITY           SKY/WX    TMP DP  RH WIND       PRES   REMARKS
GARY*          MOCLDY    43  25  49 S14       30.17R
MICHIGAN CITY* NOT AVBL
RENSSELAER*    NOT AVBL
VALPARAISO     CLEAR     38  25  59 SE9       30.19S
$$

LMZ740>746-171300-
SOUTHERN LAKE MICHIGAN

STATION/POSITION TIME  SKY/WX   TEMP WIND        PRES    VSBY
                                AIR  DIR/SP/G
                 (UTC)          (F)  (DEG/KT/KT) (MB)    (MI)
HARRISON CRIB    1200            42  170/ 23/ 26   N/A
BURNHAM HARBOR   1200            43  180/ 10/ 15   N/A
CALUMET HARBOR   1200            42  170/ 12/ 17 1021.5S
BURNS HARBOR     NOT AVBL
MICHIGAN CITY    1200            40  130/ 14/ 19   N/A
$$

ABBREVIATIONS USED IN REMARKS
   TC - TEMPERATURE IN CELSIUS
  WCI - WIND CHILL INDEX
   HX - HEAT INDEX
  VSB - VISIBILITY
$$


USA.gov is the U.S. government's official web portal to all federal, state and local government web resources and services.